Hourly Weather Roundup
Issued by NWS Central Illinois

Home | Current Version | Previous Version | Text Only | Print | Product List | Glossary On
Versions: 1 2 3 4 5 6 7 8 9 10 11 12 13 14 15 16 17 18 19 20 21 22 23 24 25 26 27 28 29 30 31 32 33 34 35 36 37 38 39 40 41 42 43 44 45 46 47 48 49 50
000
NZUS43 KILX 271110
HWRILX

AREA WEATHER ROUNDUP
NATIONAL WEATHER SERVICE, LINCOLN IL
600 AM CDT TUE SEP 27 2016


CITY           SKY/WX    TMP DP  RH WIND       PRES   REMARKS
BLOOMINGTON    CLEAR     53  44  71 W13       29.95S
CHAMPAIGN      CLEAR     52  43  71 SW8       29.95F
DANVILLE       CLEAR     52  43  71 W10       29.91F
DECATUR        CLEAR     56  43  61 SW12      29.97S
EFFINGHAM      PTCLDY    50  48  93 S3        30.02S
FLORA          CLEAR     49  46  88 SW5       30.03S
GALESBURG        N/A    N/A N/A N/A MISG        N/A
JACKSONVILLE   CLEAR     52  44  74 SW7       29.98S
LACON          CLEAR     53  42  67 SW5       29.91F
LAWRENCEVILLE  CLEAR     47  44  90 SW5       30.02S
LITCHFIELD     CLEAR     54  42  66 W8        30.00F
$$


CITY           SKY/WX    TMP DP  RH WIND       PRES   REMARKS
LINCOLN        CLEAR     56  46  67 W6        29.96S
MACOMB         CLEAR     48  45  89 W6        29.98F
MATTOON        CLEAR     53  43  68 SW8       29.98S
MT CARMEL AP   CLEAR     47  45  91 W5        30.02S
OLNEY-NOBLE AP CLEAR     46  46 100 CALM      30.03S
PARIS          CLEAR     50  44  78 CALM      29.98S
PEORIA         CLEAR     52  46  80 W7        29.94F
PONTIAC        CLEAR     51  48  87 SW9       29.92F
RANTOUL        CLEAR     55  45  68 W8        29.94S
ROBINSON       PTCLDY    46  43  90 SW3       30.02S
SPRINGFIELD    CLEAR     52  44  74 SW7       29.97F
TAYLORVILLE    CLEAR     55  43  63 SW9       29.99S
$$

...REGIONAL REPORTS...


CITY           SKY/WX    TMP DP  RH WIND       PRES   REMARKS
CHICAGO O`HARE CLEAR     52  40  63 W14       29.84S
KANKAKEE       CLEAR     46  42  86 S7        29.90S
MOLINE         CLEAR     50  42  74 W5        29.92S
MOUNT STERLING CLEAR     52  45  77 W7        29.97F
MOUNT VERNON   PTCLDY    46  39  76 CALM      30.05S
PITTSFIELD     CLEAR     55  46  70 W6        30.00F
QUINCY         CLEAR     50  45  83 W6        29.98F
ROCKFORD       CLEAR     50  40  68 SW8       29.87F
$$


CITY           SKY/WX    TMP DP  RH WIND       PRES   REMARKS
BURLINGTON     CLEAR     51  46  83 W6        29.96S
CEDAR RAPIDS   CLEAR     45  42  89 SW8       29.92S
DES MOINES     CLEAR     51  44  77 W6        29.98F
KIRKSVILLE     CLEAR     50  46  86 W5        30.01S
OTTUMWA        CLEAR     47  42  83 W8        29.97S
ST LOUIS       CLEAR     56  44  64 W6        30.03S
$$


CITY           SKY/WX    TMP DP  RH WIND       PRES   REMARKS
TERRE HAUTE    CLEAR     50  43  77 SW7       29.98F
EVANSVILLE     CLEAR     49  46  90 W5        30.04S
INDIANAPOLIS   CLEAR     48  43  82 SW7       29.96S
LAFAYETTE      CLEAR     47  44  90 SW3       29.92F
MADISON        PTCLDY    52  37  56 VRB6      29.78F
MILWAUKEE      CLEAR     53  38  56 W12       29.77F
$$






USA.gov is the U.S. government's official web portal to all federal, state and local government web resources and services.